TimeCST,TemperatureF,Dew PointF,Humidity,Sea Level PressureIn,VisibilityMPH,Wind Direction,Wind SpeedMPH,Gust SpeedMPH,PrecipitationIn,Events,Conditions,WindDirDegrees,DateUTC
12:53 AM,37.0,34.0,89,30.09,4.0,Calm,Calm,-,N/A,,Clear,0,2013-02-14 06:53:00
1:36 AM,33.8,30.2,87,30.08,1.8,Calm,Calm,-,N/A,,Clear,0,2013-02-14 07:36:00
1:51 AM,33.8,30.2,87,30.08,3.0,Calm,Calm,-,N/A,,Clear,0,2013-02-14 07:51:00
1:53 AM,34.0,30.9,89,30.08,4.0,Calm,Calm,-,N/A,,Clear,0,2013-02-14 07:53:00
2:12 AM,33.8,30.2,87,30.08,2.5,Calm,Calm,-,N/A,,Clear,0,2013-02-14 08:12:00
2:19 AM,33.8,30.2,87,30.08,3.0,Calm,Calm,-,N/A,,Clear,0,2013-02-14 08:19:00
2:53 AM,33.1,30.9,92,30.08,4.0,Calm,Calm,-,N/A,,Clear,0,2013-02-14 08:53:00
3:13 AM,33.8,30.2,87,30.07,2.0,NNE,3.5,-,N/A,,Partly Cloudy,30,2013-02-14 09:13:00
3:15 AM,33.8,30.2,87,30.07,1.0,NNE,3.5,-,N/A,,Mist,20,2013-02-14 09:15:00
3:22 AM,32.0,30.2,93,30.07,0.5,North,3.5,-,N/A,Fog,Fog,10,2013-02-14 09:22:00
3:31 AM,33.8,30.2,87,30.06,1.2,Calm,Calm,-,N/A,,Partly Cloudy,0,2013-02-14 09:31:00
3:35 AM,32.0,30.2,93,30.06,3.0,Calm,Calm,-,N/A,,Partly Cloudy,0,2013-02-14 09:35:00
3:53 AM,32.0,30.0,92,30.07,3.0,Calm,Calm,-,N/A,,Clear,0,2013-02-14 09:53:00
4:14 AM,32.0,30.2,93,30.07,2.0,Calm,Calm,-,N/A,,Clear,0,2013-02-14 10:14:00
4:22 AM,32.0,30.2,93,30.08,0.8,Calm,Calm,-,N/A,,Mist,0,2013-02-14 10:22:00
4:35 AM,30.2,30.2,100,30.08,1.2,Calm,Calm,-,N/A,,Partly Cloudy,0,2013-02-14 10:35:00
4:39 AM,30.2,28.4,93,30.09,3.0,Calm,Calm,-,N/A,,Partly Cloudy,0,2013-02-14 10:39:00
4:51 AM,32.0,28.4,87,30.08,2.5,NW,3.5,-,N/A,,Partly Cloudy,320,2013-02-14 10:51:00
4:53 AM,32.0,28.9,88,30.09,3.0,NW,3.5,-,N/A,,Clear,320,2013-02-14 10:53:00
5:25 AM,32.0,28.4,87,30.10,4.0,Calm,Calm,-,N/A,,Scattered Clouds,0,2013-02-14 11:25:00
5:32 AM,32.0,28.4,87,30.10,1.5,Calm,Calm,-,N/A,,Scattered Clouds,0,2013-02-14 11:32:00
5:36 AM,32.0,28.4,87,30.10,0.8,Calm,Calm,-,N/A,,Mist,0,2013-02-14 11:36:00
5:53 AM,30.9,28.9,92,30.12,0.5,Calm,Calm,-,N/A,Fog,Light Freezing Fog,0,2013-02-14 11:53:00
6:01 AM,30.2,28.4,93,30.12,2.0,Calm,Calm,-,N/A,,Mostly Cloudy,0,2013-02-14 12:01:00
6:10 AM,30.2,28.4,93,30.12,1.2,Calm,Calm,-,N/A,,Mostly Cloudy,0,2013-02-14 12:10:00
6:20 AM,30.2,28.4,93,30.12,2.5,Calm,Calm,-,N/A,,Mostly Cloudy,0,2013-02-14 12:20:00
6:26 AM,30.2,28.4,93,30.12,3.0,Calm,Calm,-,N/A,,Scattered Clouds,0,2013-02-14 12:26:00
6:37 AM,30.2,28.4,93,30.12,2.5,Calm,Calm,-,N/A,,Scattered Clouds,0,2013-02-14 12:37:00
6:44 AM,30.2,28.4,93,30.13,1.5,Calm,Calm,-,N/A,,Mostly Cloudy,0,2013-02-14 12:44:00
6:53 AM,30.9,28.9,92,30.13,1.0,Calm,Calm,-,N/A,,Mostly Cloudy,0,2013-02-14 12:53:00
7:03 AM,30.2,28.4,93,30.12,0.2,Calm,Calm,-,N/A,Fog,Light Freezing Fog,0,2013-02-14 13:03:00
7:13 AM,32.0,30.2,93,30.12,0.2,Calm,Calm,-,N/A,Fog,Fog,0,2013-02-14 13:13:00
7:20 AM,32.0,30.2,93,30.12,0.2,Calm,Calm,-,N/A,Fog,Fog,0,2013-02-14 13:20:00
7:53 AM,33.1,30.9,92,30.12,0.2,Calm,Calm,-,N/A,Fog,Fog,0,2013-02-14 13:53:00
8:53 AM,35.1,35.1,100,30.14,0.2,Calm,Calm,-,N/A,Fog,Fog,0,2013-02-14 14:53:00
9:33 AM,39.2,37.4,93,30.16,1.0,Calm,Calm,-,N/A,,Mist,0,2013-02-14 15:33:00
9:37 AM,39.2,37.4,93,30.16,2.0,Calm,Calm,-,N/A,,Overcast,0,2013-02-14 15:37:00
9:51 AM,39.2,37.4,93,30.16,4.0,Calm,Calm,-,N/A,,Mostly Cloudy,0,2013-02-14 15:51:00
9:53 AM,39.9,37.9,93,30.16,5.0,Calm,Calm,-,N/A,,Mostly Cloudy,0,2013-02-14 15:53:00
10:01 AM,41.0,39.2,93,30.15,7.0,Calm,Calm,-,N/A,,Scattered Clouds,0,2013-02-14 16:01:00
10:53 AM,48.0,37.9,68,30.14,10.0,SSW,3.5,-,N/A,,Clear,210,2013-02-14 16:53:00
11:53 AM,51.1,39.0,63,30.13,10.0,Variable,3.5,-,N/A,,Clear,0,2013-02-14 17:53:00
12:53 PM,55.0,37.9,53,30.10,10.0,SSE,5.8,-,N/A,,Mostly Cloudy,150,2013-02-14 18:53:00
1:53 PM,55.9,36.0,47,30.09,10.0,SW,4.6,-,N/A,,Partly Cloudy,220,2013-02-14 19:53:00
2:53 PM,57.0,36.0,45,30.08,10.0,Calm,Calm,-,N/A,,Clear,0,2013-02-14 20:53:00
3:53 PM,59.0,35.1,41,30.06,10.0,Calm,Calm,-,N/A,,Clear,0,2013-02-14 21:53:00
4:53 PM,57.0,34.0,42,30.07,10.0,West,3.5,-,N/A,,Clear,270,2013-02-14 22:53:00
5:53 PM,55.0,35.1,47,30.08,10.0,West,3.5,-,N/A,,Clear,270,2013-02-14 23:53:00
6:53 PM,46.9,39.0,74,30.09,10.0,Calm,Calm,-,N/A,,Clear,0,2013-02-15 00:53:00
7:53 PM,46.0,37.9,73,30.10,10.0,Calm,Calm,-,N/A,,Clear,0,2013-02-15 01:53:00
8:53 PM,42.1,37.0,82,30.10,10.0,Calm,Calm,-,N/A,,Clear,0,2013-02-15 02:53:00
9:53 PM,41.0,37.0,86,30.10,10.0,Calm,Calm,-,N/A,,Clear,0,2013-02-15 03:53:00
10:53 PM,39.9,36.0,86,30.10,10.0,Calm,Calm,-,N/A,,Clear,0,2013-02-15 04:53:00
11:53 PM,39.0,35.1,86,30.10,9.0,Calm,Calm,-,N/A,,Clear,0,2013-02-15 05:53:00